(203843) = 2002 VF56

Discovered at Anderson Mesa on 2002-11-06 by LONEOS.

Orbit

Orbit type: Main Belt

Note: WebGL enabled browser required.

epoch2023-09-13.0
epoch JD2460200.5
perihelion date2019-07-26.18011
perihelion JD2458690.68011
argument of perihelion (°)56.82419
ascending node (°)70.58267
inclination (°)11.92149
eccentricity0.3339466
perihelion distance (AU)2.0459625
Tisserand w.r.t. Jupiter3.1
ΔV w.r.t. Earth (km/sec)9.8
semimajor axis (AU)3.0717696
mean anomaly (°)276.40508
mean daily motion (°/day)0.18307160
aphelion distance (AU)4.098
period (years)5.38
P-vector [x]-0.59044514
P-vector [y]0.65451274
P-vector [z]0.47221564
Q-vector [x]-0.78321068
Q-vector [y]-0.60590754
Q-vector [z]-0.13948869
absolute magnitude15.5
phase slope0.15
uncertainty0
referenceMPEC 2024-B149
observations used521
oppositions12
arc length (days)9530
first opposition used1997
last opposition used2024
residual rms (arc-secs)0.76
perturbers coarse indicatorM-v
perturbers precise indicator003Ek
first observation date used1997-12-25.0
last observation date used2024-01-28.0
computer nameMPCLINUX
JD of orbit computation2456819.422359
perihelion JD uncertainty (days)1.3064E-04
argument of perihelion uncertainty (°)7.2716E-05
ascending node uncertainty (°)6.0541E-05
inclination uncertainty (°)1.4248E-05
eccentricity uncertainty 7.8188E-08
perihelion distance uncertainty (AU)2.3335E-07
Minimum Orbit Intersection Distances (in AU)
for orbit epoch: 2460200.5, reference: E2024-BE9
Mercury1.71397
Venus1.33641
Earth1.0872
Mars0.4768
Jupiter1.24235
Saturn5.92366
Uranus15.6855
Neptune26.1302

Observations

535 total observations over interval: 1997 12 25.55486 – 2024 01 28.254126
These data are available for download (format description).

Date (UT) J2000 RA J2000 Dec Magn Location Ref
1997 12 25.55486 07 30 00.85 +33 30 23.3 18.6 V 566 – Haleakala-NEAT/GEODSS MPS 106728
1997 12 25.56494 07 30 00.41 +33 30 30.0 18.4 V 566 – Haleakala-NEAT/GEODSS MPS 106728
1997 12 25.57560 07 29 59.92 +33 30 37.1 18.3 V 566 – Haleakala-NEAT/GEODSS MPS 106728
2002 10 16.38127 03 30 18.75 +09 51 03.9 19.1 R 699 – Lowell Observatory-LONEOS MPS 68239
2002 10 16.39178 03 30 18.31 +09 51 03.1   699 – Lowell Observatory-LONEOS MPS 68239
2002 10 16.40230 03 30 18.05 +09 51 03.2   699 – Lowell Observatory-LONEOS MPS 68239
2002 10 16.41282 03 30 17.62 +09 51 02.7   699 – Lowell Observatory-LONEOS MPS 68239
2002 11 06.33845 03 13 41.54 +09 42 18.1 18.7 R 699 – Lowell Observatory-LONEOS MPS 66450
2002 11 06.35828 03 13 40.29 +09 42 17.8   699 – Lowell Observatory-LONEOS MPS 66450
2002 11 06.37804 03 13 39.15 +09 42 18.2   699 – Lowell Observatory-LONEOS MPS 66450
2002 11 06.39783 03 13 37.96 +09 42 18.4   699 – Lowell Observatory-LONEOS MPS 66450
2002 11 07.27936 03 12 46.57 +09 42 15.2 19.5   704 – Lincoln Laboratory ETS, New Mexico MPS 66450
2002 11 07.29692 03 12 45.52 +09 42 16.0 19.1   704 – Lincoln Laboratory ETS, New Mexico MPS 66450
2002 11 07.31457 03 12 44.40 +09 42 16.0 19.2   704 – Lincoln Laboratory ETS, New Mexico MPS 66450
2002 11 07.33198 03 12 43.35 +09 42 15.6 19.5   704 – Lincoln Laboratory ETS, New Mexico MPS 66450
2002 11 07.34951 03 12 42.34 +09 42 15.5 19.7   704 – Lincoln Laboratory ETS, New Mexico MPS 66450
2002 11 11.24515 03 08 49.77 +09 42 45.0 19.3   704 – Lincoln Laboratory ETS, New Mexico MPS 66450
2002 11 11.26250 03 08 48.74 +09 42 46.1 19.4   704 – Lincoln Laboratory ETS, New Mexico MPS 66450
2002 11 11.27972 03 08 47.62 +09 42 45.7 19.3   704 – Lincoln Laboratory ETS, New Mexico MPS 66450
2002 11 11.29707 03 08 46.53 +09 42 45.4 19.1   704 – Lincoln Laboratory ETS, New Mexico MPS 66450
2002 11 11.31423 03 08 45.50 +09 42 46.6 19.6   704 – Lincoln Laboratory ETS, New Mexico MPS 66450
2002 11 22.35655 02 57 37.99 +09 50 49.8 19.0   644 – Palomar Mountain/NEAT MPS 68239
2002 11 22.37760 02 57 36.72 +09 50 51.3 19.1   644 – Palomar Mountain/NEAT MPS 68239
2002 11 22.39851 02 57 35.45 +09 50 52.8 19.3   644 – Palomar Mountain/NEAT MPS 68239
2002 12 01.21853 02 49 24.54 +10 06 09.2 18.8   704 – Lincoln Laboratory ETS, New Mexico MPS 68239
2002 12 01.23374 02 49 23.70 +10 06 11.5 18.9   704 – Lincoln Laboratory ETS, New Mexico MPS 68239
2002 12 01.24911 02 49 22.89 +10 06 12.9 19.5   704 – Lincoln Laboratory ETS, New Mexico MPS 68239
2002 12 01.26436 02 49 22.09 +10 06 15.6 19.3   704 – Lincoln Laboratory ETS, New Mexico MPS 68239
2002 12 01.27956 02 49 21.27 +10 06 17.9 19.5   704 – Lincoln Laboratory ETS, New Mexico MPS 68239
2002 12 07.22108 02 44 37.09 +10 21 47.0 18.8   704 – Lincoln Laboratory ETS, New Mexico MPS 68239
2002 12 07.23644 02 44 36.34 +10 21 49.3 19.2   704 – Lincoln Laboratory ETS, New Mexico MPS 68239
2002 12 07.25179 02 44 35.63 +10 21 52.0 19.3   704 – Lincoln Laboratory ETS, New Mexico MPS 68239
2002 12 07.26723 02 44 34.93 +10 21 55.4 19.1   704 – Lincoln Laboratory ETS, New Mexico MPS 68239
2002 12 07.28243 02 44 34.27 +10 21 59.1 19.6   704 – Lincoln Laboratory ETS, New Mexico MPS 68239
2002 12 08.49586 02 43 42.11 +10 25 42.4 20.1   608 – Haleakala-AMOS MPS 68239
2002 12 08.50637 02 43 41.66 +10 25 44.1 19.7   608 – Haleakala-AMOS MPS 68239
2002 12 08.51700 02 43 41.19 +10 25 45.6 20.2   608 – Haleakala-AMOS MPS 68239
2003 01 01.20707 02 35 07.44 +12 15 21.1 18.9 C 704 – Lincoln Laboratory ETS, New Mexico MPS 291432
2003 01 01.22206 02 35 07.40 +12 15 26.5 18.8 C 704 – Lincoln Laboratory ETS, New Mexico MPS 291432
2003 01 31.10641 02 48 19.80 +15 56 01.1 19.5 R 699 – Lowell Observatory-LONEOS MPS 71637
2003 01 31.11486 02 48 20.30 +15 56 05.8 19.9   704 – Lincoln Laboratory ETS, New Mexico MPS 71637
2003 01 31.12085 02 48 20.50 +15 56 08.9   699 – Lowell Observatory-LONEOS MPS 71637
2003 01 31.12939 02 48 21.04 +15 56 13.2 19.4   704 – Lincoln Laboratory ETS, New Mexico MPS 71637
2003 01 31.13515 02 48 21.21 +15 56 15.8   699 – Lowell Observatory-LONEOS MPS 71637
2003 01 31.14938 02 48 21.88 +15 56 23.0   699 – Lowell Observatory-LONEOS MPS 71637
2003 01 31.17309 02 48 23.20 +15 56 35.2 20.2   704 – Lincoln Laboratory ETS, New Mexico MPS 71637
2004 04 14.39727 15 03 43.16 -06 41 42.1 18.8 R 699 – Lowell Observatory-LONEOS MPS 106232
2004 04 14.40742 15 03 42.58 -06 41 41.0   699 – Lowell Observatory-LONEOS MPS 106232
2004 04 14.41751 15 03 42.03 -06 41 40.1   699 – Lowell Observatory-LONEOS MPS 106232
2004 04 14.42763 15 03 41.52 -06 41 39.7   699 – Lowell Observatory-LONEOS MPS 106232
2004 04 16.30521 15 02 06.71 -06 39 22.8 19.7   704 – Lincoln Laboratory ETS, New Mexico MPS 106232
2004 04 16.31655 15 02 06.05 -06 39 23.1 19.4   704 – Lincoln Laboratory ETS, New Mexico MPS 106232
2004 04 16.32736 15 02 05.55 -06 39 22.0 19.6   704 – Lincoln Laboratory ETS, New Mexico MPS 106232
2004 04 16.33862 15 02 04.88 -06 39 21.6 19.3   704 – Lincoln Laboratory ETS, New Mexico MPS 106232
2004 04 16.34943 15 02 04.37 -06 39 20.5 19.3   704 – Lincoln Laboratory ETS, New Mexico MPS 106232
2004 04 23.30241 14 55 49.78 -06 32 07.8 19.3   704 – Lincoln Laboratory ETS, New Mexico MPS 106232
2004 04 23.31309 14 55 49.14 -06 32 07.7 19.1   704 – Lincoln Laboratory ETS, New Mexico MPS 106232
2004 04 23.33496 14 55 47.92 -06 32 06.2 19.8   704 – Lincoln Laboratory ETS, New Mexico MPS 106232
2004 04 23.34629 14 55 47.21 -06 32 05.4 19.7   704 – Lincoln Laboratory ETS, New Mexico MPS 106232
2004 04 26.32200 14 52 59.57 -06 29 46.2 19.3 V 691 – Steward Observatory, Kitt Peak-Spacewatch MPS 106232
2004 04 26.34978 14 52 57.96 -06 29 45.1 19.6 V 691 – Steward Observatory, Kitt Peak-Spacewatch MPS 106232
2004 04 26.37713 14 52 56.35 -06 29 44.1 19.5 V 691 – Steward Observatory, Kitt Peak-Spacewatch MPS 106232
2004 05 13.26258 14 37 14.95 -06 29 19.1 19.8 R 699 – Lowell Observatory-LONEOS MPS 106728
2004 05 13.27607 14 37 14.30 -06 29 19.6   699 – Lowell Observatory-LONEOS MPS 106728
2004 05 13.28959 14 37 13.55 -06 29 20.9   699 – Lowell Observatory-LONEOS MPS 106728
2004 05 13.30311 14 37 12.70 -06 29 19.5   699 – Lowell Observatory-LONEOS MPS 106728
2004 05 14.24840 14 36 24.09 -06 30 06.9 19.7 C 704 – Lincoln Laboratory ETS, New Mexico MPS 294343
2004 05 14.26766 14 36 22.99 -06 30 04.9 18.7 C 704 – Lincoln Laboratory ETS, New Mexico MPS 294343
2004 05 14.27723 14 36 22.45 -06 30 04.7 18.7 C 704 – Lincoln Laboratory ETS, New Mexico MPS 294343
2004 05 14.28667 14 36 21.97 -06 30 06.5 19.0 C 704 – Lincoln Laboratory ETS, New Mexico MPS 294343
2004 05 18.90911 14 32 34.20 -06 35 01.7 18.8 R 599 – Campo Imperatore-CINEOS MPS 107384
2004 05 18.92198 14 32 33.59 -06 35 02.5 18.8 R 599 – Campo Imperatore-CINEOS MPS 107384
2004 05 18.93478 14 32 32.97 -06 35 03.2 18.9 R 599 – Campo Imperatore-CINEOS MPS 107384
2007 10 15.28557 01 13 44.67 -07 37 15.1 18.7 r 699 – Lowell Observatory-LONEOS MPS 220354
2007 10 15.30386 01 13 43.56 -07 37 16.4 18.9 r 699 – Lowell Observatory-LONEOS MPS 220354
2007 10 15.32215 01 13 42.67 -07 37 19.6 19.1 r 699 – Lowell Observatory-LONEOS MPS 220354
2007 10 15.34043 01 13 41.75 -07 37 23.5 19.4 r 699 – Lowell Observatory-LONEOS MPS 220354
2007 10 19.27609 01 10 16.57 -07 48 27.1 20.1 V 703 – Catalina Sky Survey MPS 222448
2007 10 19.28431 01 10 16.10 -07 48 28.2 20.1 V 703 – Catalina Sky Survey MPS 222448
2007 10 19.29251 01 10 15.70 -07 48 29.1 20.1 V 703 – Catalina Sky Survey MPS 222448
2007 10 19.30073 01 10 15.24 -07 48 30.1 19.9 V 703 – Catalina Sky Survey MPS 222448
2008 12 04.44014 11 21 27.01 +17 20 44.3 18.8   704 – Lincoln Laboratory ETS, New Mexico MPS 267442
2008 12 04.46562 11 21 29.49 +17 20 40.6 19.9   704 – Lincoln Laboratory ETS, New Mexico MPS 267442
2008 12 04.47858 11 21 30.86 +17 20 36.1 19.8   704 – Lincoln Laboratory ETS, New Mexico MPS 267442
2008 12 04.49132 11 21 32.13 +17 20 33.1 19.7   704 – Lincoln Laboratory ETS, New Mexico MPS 267442
2008 12 22.45117 11 49 10.56 +16 42 12.1 18.9   704 – Lincoln Laboratory ETS, New Mexico MPS 269216
2008 12 22.46430 11 49 11.65 +16 42 12.0 19.3   704 – Lincoln Laboratory ETS, New Mexico MPS 269216
